Lid_Strength_Index
12 13 13 14 15 14 15 14 15 14 14 12 11 13 12 13 14 15 15 16 16 16 16 17 17 17 17 17 17 17 17 18 18 18 18 18 18 18 18 18 18 18 18 19
14 12 14 15 15 14 14 13 13 13 13 11 11 12 13 13 14 15 15 15 15 15 16 16 17 17 17 17 17 17 17 18 18 18 18 18 17 18 18 18 18 19 18 19
17 13 14 17 14 14 14 13 13 15 13 11 11 11 12 13 13 13 14 14 14 15 15 16 16 16 17 17 17 18 18 18 18 17 17 17 17 17 17 18 18 18 19 18
17 15 21 13 10 10 11 12 12 12 12 13 11 10 10 12 13 13 12 13 14 14 14 15 15 16 16 17 17 17 17 17 17 17 17 17 17 17 17 17 18 18 18 18
18 18 15 14 15 13 13 13 10 10 10 10 10 14 12 12 11 11 12 12 12 13 13 14 16 16 16 17 17 17 17 17 17 16 16 17 17 17 17 17 18 18 17 19
16 19 20 15 15 12 11 15 11 10 10 10 12 14 11 10 13 13 13 13 14 14 15 15 16 16 17 17 17 17 17 16 16 15 15 16 16 16 17 16 17 18 18 19
16 17 16 16 17 13 16 15 19 16 15 14 13 10 13 14 14 14 14 14 14 14 14 15 15 16 16 17 17 15 15 15 16 15 15 15 16 17 18 18 19 20 19 19
15 17 19 15 16 14 14 17 16 16 15 14 14 15 16 16 15 15 15 15 15 15 16 15 15 15 16 16 15 16 16 16 16 16 16 16 16 20 20 19 19 20 21 20
14 14 14 14 14 14 15 15 14 14 15 15 16 16 17 16 16 16 15 16 15 15 16 17 16 16 17 18 18 18 17 17 18 18 18 18 18 20 21 20 18 18 18 17
14 14 15 16 15 16 16 16 16 14 15 16 16 17 17 17 17 17 18 17 18 16 18 19 21 19 18 18 18 18 18 19 20 19 21 21 19 19 18 18 17 18 19 18
15 14 15 14 15 14 15 16 16 16 16 16 16 17 17 18 18 18 18 19 18 17 18 19 20 20 21 19 19 19 21 22 21 21 21 22 21 20 19 21 18 22 21 20
15 13 12 12 12 14 13 15 15 15 16 17 16 16 17 17 18 18 18 20 19 20 19 21 20 21 22 21 19 20 21 21 21 21 23 21 21 23 15 15 13 12 12 17
12 12 12 14 13 13 12 14 15 16 16 16 17 17 17 18 18 18 19 19 19 19 20 20 21 22 26 25 22 22 22 22 22 21 21 22 23 21 21 19 12 12 11 10
14 13 13 14 15 13 13 14 15 16 17 16 17 18 19 19 19 18 19 20 19 20 21 23 24 27 29 29 24 26 25 21 21 22 22 23 22 23 23 22 21 23 16 14
16 15 15 15 15 16 15 16 15 16 17 18 19 19 18 18 18 19 21 21 22 23 25 24 25 28 29 27 23 25 23 24 23 23 23 22 23 23 24 24 26 26 24 18
19 17 17 17 17 17 17 18 18 18 18 19 19 19 20 20 21 24 24 25 22 22 27 26 26 29 31 28 26 26 25 23 23 23 24 24 23 24 24 24 25 23 24 24
20 19 19 20 19 19 20 19 18 19 19 19 21 22 21 23 25 26 28 27 25 26 27 27 29 30 30 27 26 25 25 25 24 25 25 25 25 25 24 26 26 28 26 23
24 22 22 22 21 20 21 23 22 22 23 23 23 22 23 23 23 27 30 30 29 30 32 33 34 32 30 30 27 27 26 27 27 27 27 26 27 25 26 27 28 27 26 24
27 25 25 25 26 25 25 25 26 26 25 26 24 26 28 28 28 31 33 29 30 30 32 35 22 30 29 27 27 26 27 27 28 29 27 26 26 28 30 30 28 26 24 24
28 28 28 28 29 29 28 29 29 29 29 28 28 29 31 32 32 31 34 35 37 34 35 34 33 32 31 26 25 27 27 26 24 25 25 25 27 30 27 26 27 28 30 31
31 30 30 30 31 31 32 31 31 31 31 30 29 31 32 35 33 34 31 30 33 36 35 31 32 30 29 27 25 25 27 26 26 27 28 29 28 30 29 30 30 30 29 29
33 32 31 31 31 32 32 32 31 31 31 30 31 31 30 33 33 32 35 32 33 29 30 30 29 26 26 23 26 25 25 25 27 28 28 28 29 29 29 30 30 29 29 31
34 34 31 32 33 34 33 32 32 31 30 31 31 31 30 30 31 29 30 31 32 28 29 28 25 22 21 23 25 25 24 24 23 23 24 25 25 26 27 28 29 30 31 29
33 32 34 35 33 29 31 34 32 32 32 31 31 32 30 28 28 29 28 27 25 25 26 25 23 18 20 24 23 23 23 24 24 25 25 24 26 29 31 29 27 29 28 27
33 34 33 31 29 30 33 34 30 31 30 30 30 30 29 29 30 30 30 28 22 26 26 23 17 18 24 25 24 23 22 24 25 27 25 25 26 28 29 29 29 28 28 27
31 31 30 30 30 29 29 29 29 30 30 29 29 29 28 28 26 26 26 24 26 24 27 26 27 26 25 24 25 25 24 24 24 24 24 25 25 27 28 27 27 26 26 26
30 29 30 29 29 30 31 31 31 32 33 34 31 30 30 29 27 25 25 26 27 27 27 27 26 24 25 24 24 24 23 23 23 23 24 24 24 26 26 25 25 25 25 25